[Iaude] MPEC T234: 2008 VA110 [a=5.99,e=0.45,i=149.5,H=16.2]

mpec at marsden.cfa.harvard.edu mpec at marsden.cfa.harvard.edu
Fri Oct 13 23:17:19 EDT 2023


M.P.E.C. 2023-T234                             Issued 2023 October 14, 03:15 UT

     The Minor Planet Electronic Circulars contain information on unusual
         minor planets, routine data on comets and natural satellites,
         and occasional editorial announcements.  They are published
    on behalf of Division F of the International Astronomical Union by the
          Minor Planet Center, Smithsonian Astrophysical Observatory,
                          Cambridge, MA 02138, U.S.A.
			  
             Prepared using the Tamkin Foundation Computer Network

                              MPC at CFA.HARVARD.EDU
            URL https://www.minorplanetcenter.net/    ISSN 1523-6714

                                   2008 VA110                                   


Observations:
     K08VB0A 1C2008 11 02.31035 03 46 41.23 +13 17 14.4          21.4 VrET234G96
     K08VB0A 1C2008 11 02.32067 03 46 39.86 +13 17 14.1          22.0 VrET234G96
     K08VB0A 1C2008 11 02.33108 03 46 38.56 +13 17 12.8          21.6 VrET234G96
     K08VB0A 1C2008 11 02.34142 03 46 37.34 +13 17 11.1          21.5 VrET234G96
     K08VB0A*1C2008 11 02.40351 03 46 29.46 +13 17 06.2          21.4 VrET234G96
     K08VB0A 1C2008 11 02.41411 03 46 28.12 +13 17 06.0          21.4 VrET234G96
     K08VB0A 1C2008 11 02.42470 03 46 26.76 +13 17 03.7          21.2 VrET234G96
     K08VB0A 1C2008 11 02.43529 03 46 25.50 +13 17 02.5          20.7 VrET234G96
     K08VB0A HC2008 11 07.26209 03 36 08.19 +13 08 31.8                oET234291
     K08VB0A HC2008 11 07.26607 03 36 07.71 +13 08 31.5                oET234291
     K08VB0A  C2008 11 07.27009 03 36 07.14 +13 08 30.7          21.9 VoET234291
     K08VB0A  C2008 11 07.53577603 35 32.386+13 08 00.32         22.43GVET234F51
     K08VB0A  C2008 11 07.54798103 35 30.793+13 07 59.11         22.69GVET234F51
     K08VB0A  C2022 12 15.37491504 45 40.669+02 13 58.91         22.50GVET234F51
     K08VB0A  C2022 12 15.38565104 45 39.578+02 13 59.99         22.06GVET234F51
     K08VB0A  C2022 12 15.39643704 45 38.451+02 14 01.23         22.55GVET234F51
     K08VB0A  C2023 09 12.51559903 23 42.622+22 32 35.22         21.92GVET234F52
     K08VB0A  C2023 09 12.52896203 23 41.526+22 32 37.68         21.81GVET234F52
     K08VB0A  C2023 09 12.54241703 23 40.388+22 32 39.70         21.80GVET234F52
     K08VB0A  C2023 09 12.55605503 23 39.214+22 32 42.15         21.62GVET234F52
     K08VB0A  C2023 09 25.36329 03 02 32.79 +22 58 31.3          21.3 GVET234G96
     K08VB0A  C2023 09 25.36844 03 02 32.21 +22 58 31.0          21.8 GVET234G96
     K08VB0A  C2023 09 25.37359 03 02 31.65 +22 58 31.6                VET234G96
     K08VB0A  C2023 10 08.55163502 33 57.051+22 56 00.99         21.39GVET234F52
     K08VB0A  C2023 10 08.56328502 33 55.399+22 55 59.84         21.46GVET234F52
     K08VB0A  C2023 10 08.57489402 33 53.672+22 55 58.49         21.13GVET234F52
     K08VB0A  C2023 10 08.58655302 33 52.028+22 55 57.54         21.75GVET234F52
     K08VB0A  C2023 10 08.63688702 33 44.699+22 55 51.89         21.92GVET234F52
     K08VB0A 1C2023 10 10.31403102 29 40.290+22 52 39.68         21.40GVET234G96
     K08VB0A 1C2023 10 10.31923202 29 39.505+22 52 38.96         21.35GVET234G96
     K08VB0A 1C2023 10 10.32961402 29 37.957+22 52 37.45               VET234G96
     K08VB0A KC2023 10 10.43494802 29 22.283+22 52 23.92         21.00GVET234V06
     K08VB0A KC2023 10 10.43732702 29 21.937+22 52 23.48         21.16GVET234V06
     K08VB0A KC2023 10 10.43970702 29 21.563+22 52 23.30         21.08GVET234V06
     K08VB0A KC2023 10 10.44208902 29 21.232+22 52 22.98         21.24GVET234V06
     K08VB0A 7C2023 10 11.04419902 27 52.182+22 51 01.93         21.3 GVET234Z84
     K08VB0A 7C2023 10 11.05143802 27 51.079+22 51 01.12         21.2 GVET234Z84
     K08VB0A 7C2023 10 11.05865202 27 49.999+22 50 59.96         21.3 GVET234Z84
     K08VB0A KC2023 10 11.22229402 27 25.812+22 50 37.54         21.57GVET234I52
     K08VB0A KC2023 10 11.22589602 27 25.258+22 50 36.31         21.33GVET234I52
     K08VB0A KC2023 10 11.23310202 27 24.181+22 50 35.41         20.81GVET234I52
     K08VB0A KC2023 10 11.32147902 27 10.83 +22 50 23.5          21.4 VuET234H21
     K08VB0A KC2023 10 11.32709202 27 09.98 +22 50 22.6          21.5 VuET234H21
     K08VB0A KC2023 10 11.33270602 27 09.13 +22 50 22.0          21.0 VuET234H21
     K08VB0A 0C2023 10 11.38382 02 27 01.57 +22 50 13.5                VET234U94
     K08VB0A 0C2023 10 11.39375 02 27 00.08 +22 50 12.2          20.8 GVET234U94
     K08VB0A  C2023 10 12.40056302 24 29.225+22 47 40.36         21.37wXET234F52
     K08VB0A  C2023 10 12.41336502 24 27.286+22 47 38.37         21.33wXET234F52
     K08VB0A  C2023 10 12.42625102 24 25.326+22 47 36.31         21.35wXET234F52
     K08VB0A  C2023 10 12.43927902 24 23.354+22 47 34.35         21.37wXET234F52

Observer details:
291 LPL/Spacewatch II.  Observer J. V. Scotti.  1.8-m f/2.7 reflector + CCD.
F51 Pan-STARRS 1, Haleakala.  Observers J. Bulger, T. Lowe, P. Minguez, A.
    Schultz, I. Smith.  Measurers K. Chambers, T. de Boer, J. Fairlamb, H.
    Gao, M. Huber, C.-C. Lin, E. Magnier, Y. Ramanjooloo, R. Wainscoat, R.
    Weryk.  1.8-m Ritchey-Chretien + CCD.
F52 Pan-STARRS 2, Haleakala.  Observers J. Bulger, T. Lowe, P. Minguez, A.
    Schultz, I. Smith.  Measurers K. Chambers, T. de Boer, J. Fairlamb, H.
    Gao, M. Huber, C.-C. Lin, E. Magnier, Y. Ramanjooloo, R. Wainscoat, R.
    Weryk.  1.8-m Ritchey-Chretien + CCD.
G96 Mt. Lemmon Survey.  Observers R. A. Kowalski, D. Rankin.  Measurers E. C.
    Beshore, A. Boattini, G. J. Garradd, A. R. Gibbs, A. D. Grauer, R. E.
    Hill, R. A. Kowalski, S. M. Larson, R. H. McNaught, B. Gray, D. Rankin, F.
    C. Shelly, D. Fay, J. B. Fazekas, D. C. Fuls, H. Groeller, J. K. Hogan, G.
    J. Leonard, R. L. Seaman, K. W. Wierzchos.  1.5-m reflector + CCD, 1.5-m
    reflector + 10K CCD.
H21 Astronomical Research Observatory, Westfield.  Observer R. Holmes.
    Measurers T. Linder, R. Holmes, L. Horn.  0.76-m f/3.0 astrograph + CCD.
I52 Steward Observatory, Mt. Lemmon Station.  Observer J. B. Fazekas.
    Measurers E. C. Beshore, D. Fay, J. B. Fazekas, D. C. Fuls, A. R. Gibbs,
    A. D. Grauer, H. Groeller, J. K. Hogan, R. A. Kowalski, S. M. Larson, G.
    J. Leonard, D. Rankin, R. L. Seaman, F. C. Shelly, K. W. Wierzchos.  1.0-m
    prime focus + CCD.
U94 iTelescope Observatory, Beryl Junction.  Observer H. Sato.  0.51-m f/6.8
    astrograph + CCD + f/4.5 focal reducer.
V06 Catalina Sky Survey-Kuiper.  Observer J. B. Fazekas.  Measurers E. C.
    Beshore, D. Fay, J. B. Fazekas, D. C. Fuls, A. R. Gibbs, A. D. Grauer, H.
    Groeller, J. K. Hogan, R. A. Kowalski, S. M. Larson, G. J. Leonard, D.
    Rankin, R. L. Seaman, F. C. Shelly, K. W. Wierzchos.  1.55-m reflector +
    1K CCD.
Z84 Calar Alto-Schmidt.  Observers F. Ocana, M. Micheli, R. Kresken, L.
    Conversi.  Measurers F. Ocana, M. Micheli.  0.8-m f/3 Schmidt + CCD.

Orbital elements:
2008 VA110                                                                      
Epoch 2023 Sept. 13.0 TT = JDT 2460200.5                Bell                    
M 346.22069              (2000.0)            P               Q                  
n   0.06726359     Peri.   44.97090     +0.93117821     -0.07056381             
a   5.9880125      Node    44.87502     -0.08062975     -0.99665554             
e   0.4474871      Incl.  149.54052     +0.35553621     -0.04121269             
P  14.7            H   16.22          G   0.15           U   1                  
Residuals in seconds of arc
081102 G96  0.1+  0.6-    230912 F52  0.1+  0.0     231010 V06  0.1+  0.1-
081102 G96  0.8-  0.1+    230912 F52  0.0   0.2-    231011 Z84  0.1+  0.3-
081102 G96  0.6-  0.1-    230912 F52  0.3-  0.1-    231011 Z84  0.2-  0.1-
081102 G96  0.7+  0.8-    230925 G96  0.3-  0.4+    231011 Z84  0.2-  0.2-
081102 G96  0.2+  0.4+    230925 G96  0.0   0.2-    231011 I52  0.2-  0.4+
081102 G96  0.2+  1.2+    230925 G96  0.5+  0.0     231011 I52  0.4-  0.3-
081102 G96  0.1-  0.1-    231008 F52  0.3-  0.0     231011 I52  0.4-  0.3-
081102 G96  1.0+  0.2-    231008 F52  0.3+  0.1+    231011 H21  0.2-  0.3+
081107 291  0.1-  0.4+    231008 F52  0.2-  0.0     231011 H21  0.3-  0.2+
081107 291  0.5+  0.5+    231008 F52  0.5+  0.2+    231011 H21  0.4-  0.4+
081107 291  0.1-  0.1+    231008 F52  0.3+  0.0     231011 U94  0.1-  0.7-
081107 F51  0.1-  0.3-    231010 G96  0.3+  0.1+    231011 U94  0.0   0.5-
081107 F51  0.0   0.0     231010 G96  0.1+  0.0     231012 F52  0.1-  0.1-
221215 F51  0.0   0.1-    231010 G96  0.0   0.2-    231012 F52  0.0   0.1-
221215 F51  0.2+  0.1-    231010 V06  0.0   0.1-    231012 F52  0.0   0.1-
221215 F51  0.2-  0.0     231010 V06  0.1+  0.2-    231012 F52  0.2+  0.0
230912 F52  0.3-  0.2-    231010 V06  0.2-  0.0

Ephemeris:
2008 VA110               a,e,i = 5.99, 0.45, 150                 q = 3.3085
Date    TT    R. A. (2000) Decl.     Delta      r    Elong.  Phase     V
2023 09 14    03 21 36.6 +22 36 35   2.9769  3.5447   116.7    14.7    22.2
...
2023 09 29    02 55 19.5 +23 01 24   2.7148  3.5129   136.8    11.3    21.8
...
2023 10 07    02 37 38.7 +22 58 19   2.6072  3.4968   148.2     8.7    21.6
...
2023 10 13    02 22 58.6 +22 46 02   2.5455  3.4851   156.8     6.5    21.5
2023 10 14    02 20 26.2 +22 43 04   2.5370  3.4831   158.2     6.1    21.4
2023 10 15    02 17 52.5 +22 39 51   2.5290  3.4812   159.6     5.7    21.4
...
2023 10 21    02 02 07.6 +22 14 51   2.4924  3.4699   167.1     3.7    21.3
...
2023 10 29    01 40 42.8 +21 27 10   2.4749  3.4554   169.1     3.1    21.2
...
2023 11 13    01 02 42.2 +19 25 12   2.5383  3.4299   149.8     8.4    21.5

M. P. C. Staff               (C) Copyright 2023 MPC           M.P.E.C. 2023-T234





More information about the Iaude mailing list